Weather History for KELP - May, 2013

Change the Weather History Date:

Saturday, May 25, 2013

  Actual Average Record
Temperature  
Mean Temperature 84 °F 77 °F  
Max Temperature 97 °F 91 °F 102 °F (2006)
Min Temperature 70 °F 63 °F 48 °F (1975)
Degree Days  
Heating Degree Days 0 0  
Month to date heating degree days 21 6  
Since 1 July heating degree days 2219 2471  
Cooling Degree Days 19 12  
Month to date cooling degree days 237 209  
Year to date cooling degree days 404 301  
Growing Degree Days 34 (Base 50)    
Moisture  
Dew Point 36 °F    
Average Humidity 28    
Maximum Humidity 49    
Minimum Humidity 6    
Precipitation  
Precipitation 0.00 in 0.01 in 0.10 in (1926)
Month to date precipitation 0.18 0.36  
Year to date precipitation 0.89 1.71  
Snow  
Snow 0.00 in - - ()
Month to date snowfall 0.0  
Since 1 July snowfall 3.1  
Snow Depth 0.00 in    
Sea Level Pressure  
Sea Level Pressure 29.77 in    
Wind  
Wind Speed 8 mph (WSW)    
Max Wind Speed 21 mph    
Max Gust Speed 26 mph    
Visibility 10 miles    
Events      
T = Trace of Precipitation, MM = Missing Value Source: NWS Daily Summary

Daily Weather History Graph

Daily Weather History Graph

Search for Another Location

Airport or City:

Trip Planner

Search our weather history database for the weather conditions in past years. The results will help you decide how hot, cold, wet, or windy it might be!

Date:

Astronomy

May. 25, 2013 Rise Set
Actual Time 6:02 AM MDT 8:02 PM MDT
Civil Twilight 5:35 AM MDT 8:29 PM MDT
Nautical Twilight 5:02 AM MDT 9:03 PM MDT
Astronomical Twilight 4:26 AM MDT 9:38 PM MDT
Moon 8:54 PM MDT (5/25) 6:31 AM MDT (5/25)
Length of Visible Light 14h 54m
Length of Day
13h 59m
Waxing Gibbous, 99% of the Moon is Illuminated
May 25
Waxing Gibbous
May 31
Last Quarter
Jun 8
New
Jun 16
First Quarter
Jun 23
Full

Hourly Weather History & Observations

Time (MDT) Temp. Dew Point Humidity Pressure Visibility Wind Dir Wind Speed Gust Speed Precip Events Conditions
12:51 AM 78.1 °F 48.0 °F 35% 29.78 in 10.0 mi Calm Calm - N/A   Scattered Clouds
1:51 AM 75.0 °F 54.0 °F 48% 29.81 in 10.0 mi ESE 5.8 mph - N/A   Scattered Clouds
2:51 AM 73.9 °F 53.1 °F 48% 29.80 in 10.0 mi East 9.2 mph - N/A   Scattered Clouds
3:51 AM 72.0 °F 52.0 °F 49% 29.81 in 10.0 mi NE 8.1 mph - N/A   Scattered Clouds
4:51 AM 71.1 °F 52.0 °F 51% 29.81 in 10.0 mi NNE 5.8 mph - N/A   Mostly Cloudy
5:51 AM 71.1 °F 52.0 °F 51% 29.81 in 10.0 mi NNW 3.5 mph - N/A   Scattered Clouds
6:51 AM 71.1 °F 52.0 °F 51% 29.83 in 10.0 mi Calm Calm - N/A   Scattered Clouds
7:51 AM 73.0 °F 53.1 °F 49% 29.84 in 10.0 mi Calm Calm - N/A   Scattered Clouds
8:51 AM 75.9 °F 53.1 °F 45% 29.85 in 10.0 mi SSE 8.1 mph - N/A   Partly Cloudy
9:51 AM 79.0 °F 53.1 °F 40% 29.84 in 10.0 mi Variable 5.8 mph - N/A   Clear
10:51 AM 84.0 °F 50.0 °F 31% 29.83 in 10.0 mi Variable 4.6 mph - N/A   Partly Cloudy
11:51 AM 87.1 °F 45.0 °F 23% 29.82 in 10.0 mi SW 5.8 mph - N/A   Partly Cloudy
12:51 PM 91.9 °F 34.0 °F 13% 29.79 in 10.0 mi SSW 12.7 mph 20.7 mph N/A   Scattered Clouds
1:51 PM 93.0 °F 27.0 °F 9% 29.77 in 10.0 mi West 10.4 mph - N/A   Scattered Clouds
2:51 PM 95.0 °F 21.9 °F 7% 29.74 in 10.0 mi West 13.8 mph 17.3 mph N/A   Scattered Clouds
3:51 PM 96.1 °F 21.9 °F 7% 29.72 in 10.0 mi West 12.7 mph 21.9 mph N/A   Partly Cloudy
4:51 PM 96.1 °F 19.0 °F 6% 29.70 in 10.0 mi West 13.8 mph - N/A   Partly Cloudy
5:51 PM 95.0 °F 17.1 °F 6% 29.68 in 10.0 mi West 15.0 mph 21.9 mph N/A   Partly Cloudy
6:51 PM 93.9 °F 19.0 °F 7% 29.67 in 10.0 mi WNW 11.5 mph - N/A   Scattered Clouds
7:51 PM 91.9 °F 16.0 °F 6% 29.68 in 10.0 mi West 10.4 mph - N/A   Scattered Clouds
8:51 PM 90.0 °F 14.0 °F 6% 29.69 in 10.0 mi West 6.9 mph - N/A   Partly Cloudy
9:51 PM 84.9 °F 14.0 °F 7% 29.72 in 10.0 mi SW 6.9 mph - N/A   Clear
10:51 PM 89.1 °F 19.9 °F 8% 29.73 in 10.0 mi West 11.5 mph 20.7 mph N/A   Clear
11:51 PM 80.1 °F 30.0 °F 16% 29.75 in 10.0 mi ESE 9.2 mph - N/A   Clear